San Jose, Costa Rica

11:54 PM CST on September 30, 2016 (GMT -0600)
Juan Santamaria International

Weather History for MROC - August, 2012

Change the Weather History Date:

Sunday, August 26, 2012

  Actual Average Record
Temperature  
Mean Temperature 72 °F -  
Max Temperature 81 °F 79 °F 87 °F (2015)
Min Temperature 64 °F 65 °F 62 °F (1999)
Cooling Degree Days 8    
Growing Degree Days 22 (Base 50)    
Moisture  
Dew Point 65 °F    
Average Humidity 82    
Maximum Humidity 94    
Minimum Humidity 61    
Precipitation  
Precipitation 0.04 in - - ()
Sea Level Pressure  
Sea Level Pressure 29.96 in    
Wind  
Wind Speed 5 mph ()    
Max Wind Speed 13 mph    
Max Gust Speed 16 mph    
Visibility 8.0 miles    
Events Fog , Rain    
Averages and records for this station are not official NWS values.
T = Trace of Precipitation, MM = Missing Value Source: Averaged Metar Reports

Daily Weather History Graph

Daily Weather History Graph

Search for Another Location

Airport or City:

Trip Planner

Search our weather history database for the weather conditions in past years. The results will help you decide how hot, cold, wet, or windy it might be!

Date:

Astronomy

Aug. 26, 2012 Rise Set
Actual Time 5:27 AM CST 5:48 PM CST
Civil Twilight 5:06 AM CST 6:10 PM CST
Nautical Twilight 4:41 AM CST 6:35 PM CST
Astronomical Twilight 4:16 AM CST 7:00 PM CST
Moon 1:45 PM CST (8/26) 12:42 AM CST (8/26)
Length of Visible Light 13h 03m
Length of Day
12h 21m
Waxing Gibbous, 74% of the Moon is Illuminated
Aug 26
Waxing Gibbous
Aug 31
Full
Sep 8
Last Quarter
Sep 15
New
Sep 22
First Quarter

Hourly Weather History & Observations

Time (CST) Temp. Dew Point Humidity Pressure Visibility Wind Dir Wind Speed Gust Speed Precip Events Conditions
12:00 AM 68 °F 62 °F 76% 29.83 in 12 mi SE 2.3 mph - -   Mostly Cloudy
12:00 AM 68.0 °F 62.6 °F 83% 29.95 in - SE 2.3 mph - N/A   Clear
1:00 AM 66.2 °F 64.4 °F 94% 29.97 in 6.2 mi WNW 4.6 mph 16.1 mph N/A   Mostly Cloudy
2:00 AM 66.2 °F 62.6 °F 88% 29.95 in 6.2 mi NW 4.6 mph - N/A   Scattered Clouds
3:00 AM 66 °F 63 °F 87% 29.78 in 12 mi East 3.5 mph - -   Scattered Clouds
3:00 AM 66.2 °F 62.6 °F 88% 29.95 in - East 3.5 mph - N/A   Clear
4:00 AM 66.2 °F 62.6 °F 88% 29.94 in - East 5.8 mph - N/A   Clear
5:00 AM 66.2 °F 60.8 °F 83% 29.95 in - ENE 8.1 mph - N/A   Clear
6:00 AM 66 °F 60 °F 75% 29.85 in 12 mi ENE 6.9 mph - -   Scattered Clouds
6:00 AM 66.2 °F 60.8 °F 83% 29.96 in - ENE 6.9 mph - N/A   Clear
7:00 AM 73.4 °F 62.6 °F 69% 29.98 in - ENE 4.6 mph - N/A   Clear
9:00 AM 71 °F 64 °F 74% 29.88 in 12 mi SW 12.7 mph - -   Mostly Cloudy
9:00 AM 69.8 °F 64.4 °F 83% 30.03 in - SW 12.7 mph - N/A   Clear
10:00 AM 73.4 °F 66.2 °F 78% 30.04 in 6.2 mi West 9.2 mph - N/A   Mostly Cloudy
11:00 AM 75.2 °F 64.4 °F 69% 30.03 in 6.2 mi WNW 5.8 mph - N/A   Mostly Cloudy
12:00 PM 77.0 °F 64.4 °F 65% 30.00 in 6.2 mi West 2.3 mph - N/A Rain Light Rain
1:00 PM 78.8 °F 64.4 °F 61% 29.96 in 6.2 mi ESE 2.3 mph - N/A   Mostly Cloudy
2:00 PM 78.8 °F 64.4 °F 61% 29.95 in 6.2 mi SSW 4.6 mph - N/A   Drizzle
3:00 PM 72 °F 68 °F 83% 29.82 in 12 mi WSW 12.7 mph - - Rain Light Drizzle
3:00 PM 71.6 °F 68.0 °F 88% 29.96 in 6.2 mi WSW 12.7 mph - N/A   Light Drizzle
4:00 PM 71.6 °F 66.2 °F 83% 29.95 in 6.2 mi West 6.9 mph - N/A   Mostly Cloudy
4:06 PM 69.8 °F 68.0 °F 94% 30.02 in - SW 8.1 mph - N/A   Clear
4:30 PM 68.0 °F 66.2 °F 94% 30.03 in 5.0 mi WSW 9.2 mph - N/A Fog Mostly Cloudy
5:00 PM 71.6 °F 66.2 °F 83% 29.97 in 6.2 mi West 4.6 mph - N/A   Mostly Cloudy
6:00 PM 70 °F 67 °F 85% 29.86 in 12 mi ESE 3.5 mph - - Rain Light Drizzle
6:00 PM 69.8 °F 66.2 °F 88% 29.98 in 6.2 mi ESE 3.5 mph - N/A   Light Drizzle
7:00 PM 69.8 °F 66.2 °F 88% 29.99 in - East 3.5 mph - N/A   Clear
8:00 PM 71.6 °F 66.2 °F 83% 30.00 in - East 3.5 mph - N/A   Clear
9:00 PM 72 °F 65 °F 74% 29.87 in 12 mi ENE 5.8 mph - -   Mostly Cloudy
9:00 PM 71.6 °F 66.2 °F 83% 30.00 in - ENE 5.8 mph - N/A   Clear
10:00 PM 69.8 °F 66.2 °F 88% 30.01 in - South 4.6 mph - N/A   Clear
10:06 PM 69.8 °F 68.0 °F 94% 30.02 in - SW 8.1 mph - N/A   Clear
10:30 PM 68.0 °F 66.2 °F 94% 30.03 in 5.0 mi WSW 9.2 mph - N/A Fog Mostly Cloudy
11:00 PM 68.0 °F 66.2 °F 94% 30.03 in 5.0 mi West 5.8 mph - N/A Fog Mostly Cloudy